Weather History for KFOA - December, 2011

Change the Weather History Date:

Tuesday, December 20, 2011

  Actual Average (KEVV) Record (KEVV)
Temperature  
Mean Temperature 46 °F 34 °F  
Max Temperature 48 °F 43 °F 68 °F (1949)
Min Temperature 44 °F 26 °F -4 °F (1901)
Degree Days  
Heating Degree Days 19 31  
Month to date heating degree days 565  
Since 1 July heating degree days 1426  
Cooling Degree Days 0 0  
Month to date cooling degree days 0  
Year to date cooling degree days 1397  
Moisture  
Dew Point 44 °F    
Average Humidity 90    
Maximum Humidity 93    
Minimum Humidity 76    
Precipitation  
Precipitation 0.08 in 0.11 in 0.98 in (1962)
Month to date precipitation 2.50  
Year to date precipitation 44.05  
Snow  
Snow 0.00 in 0.10 in 4.50 in (1973)
Month to date snowfall 1.8  
Since 1 July snowfall 2.1  
Snow Depth -    
Sea Level Pressure  
Sea Level Pressure 29.98 in    
Wind  
Wind Speed 3 mph (ENE)    
Max Wind Speed 9 mph    
Max Gust Speed -    
Visibility 3 miles    
Events Fog , Rain    
T = Trace of Precipitation, MM = Missing Value Source: NWS Daily Summary

Daily Weather History Graph

Daily Weather History Graph

Search for Another Location

Airport or City:

Trip Planner

Search our weather history database for the weather conditions in past years. The results will help you decide how hot, cold, wet, or windy it might be!

Date:

Astronomy

Dec. 20, 2011 Rise Set
Actual Time 7:07 AM CST 4:35 PM CST
Civil Twilight 6:37 AM CST 5:05 PM CST
Nautical Twilight 6:04 AM CST 5:38 PM CST
Astronomical Twilight 5:31 AM CST 6:10 PM CST
Moon 2:30 AM CST (12/20) 1:09 PM CST (12/20)
Length of Visible Light 10h 27m
Length of Day
9h 27m
Waning Crescent, 21% of the Moon is Illuminated
Dec 20
Waning Crescent
Dec 24
New
Jan 1
First Quarter
Jan 9
Full
Jan 16
Last Quarter

Hourly Weather History & Observations

Time (CST) Temp. Windchill Dew Point Humidity Pressure Visibility Wind Dir Wind Speed Gust Speed Precip Events Conditions
12:15 AM 45.0 °F - 43.2 °F 93% 30.12 in 2.0 mi Calm Calm - N/A   Light Drizzle
12:35 AM 45.1 °F - 43.3 °F 93% 30.12 in 2.0 mi Calm Calm - N/A   Overcast
12:55 AM 45.1 °F 43.7 °F 43.3 °F 93% 30.12 in 1.8 mi NNW 3.5 mph - N/A   Overcast
1:15 AM 45.1 °F - 43.3 °F 93% 30.10 in 2.0 mi Calm Calm - N/A   Overcast
1:35 AM 45.1 °F 43.7 °F 43.3 °F 93% 30.10 in 1.8 mi NE 3.5 mph - N/A   Overcast
1:55 AM 45.1 °F - 43.3 °F 93% 30.10 in 2.5 mi Calm Calm - N/A   Overcast
2:15 AM 44.6 °F - 42.8 °F 93% 30.10 in 2.0 mi Calm Calm - N/A   Overcast
2:35 AM 45.1 °F - 43.3 °F 93% 30.10 in 1.5 mi Calm Calm - N/A   Overcast
2:55 AM 45.0 °F - 43.2 °F 93% 30.10 in 1.0 mi Calm Calm - N/A   Overcast
3:15 AM 45.1 °F - 43.3 °F 93% 30.08 in 0.5 mi Calm Calm - N/A Fog Fog
3:35 AM 45.9 °F - 44.1 °F 93% 30.08 in 0.5 mi Calm Calm - N/A Fog Fog
3:55 AM 45.7 °F 44.4 °F 43.9 °F 93% 30.07 in 0.2 mi ENE 3.5 mph - N/A Fog Fog
4:15 AM 45.7 °F - 43.9 °F 93% 30.07 in 0.5 mi Calm Calm - N/A Fog Fog
4:35 AM 45.7 °F - 43.9 °F 93% 30.07 in 0.5 mi Calm Calm - N/A Fog Fog
4:55 AM 45.1 °F - 43.3 °F 93% 30.07 in 0.5 mi Calm Calm - N/A Fog Fog
5:15 AM 45.1 °F - 43.3 °F 93% 30.08 in 0.2 mi Calm Calm - N/A Fog Fog
5:35 AM 45.1 °F 42.0 °F 43.3 °F 93% 30.05 in 0.2 mi ENE 5.8 mph - N/A   Light Drizzle
5:55 AM 45.0 °F 41.2 °F 43.2 °F 93% 30.04 in 4.0 mi NE 6.9 mph - 0.01 in Rain Light Rain
6:15 AM 45.1 °F 40.8 °F 43.3 °F 93% 30.04 in 4.0 mi ENE 8.1 mph - N/A Rain Rain
6:35 AM 44.6 °F 40.7 °F 42.8 °F 93% 30.04 in 4.0 mi East 6.9 mph - N/A Rain Rain
6:55 AM 44.6 °F 42.2 °F 42.8 °F 93% 30.05 in 5.0 mi ESE 4.6 mph - 0.01 in   Light Drizzle
7:15 AM 44.6 °F - 42.8 °F 93% 30.04 in 5.0 mi Calm Calm - N/A Rain Rain
7:35 AM 44.6 °F 41.4 °F 42.8 °F 93% 30.03 in 4.0 mi East 5.8 mph - N/A   Overcast
7:55 AM 44.8 °F 41.0 °F 42.6 °F 92% 29.99 in 4.0 mi ENE 6.9 mph - N/A   Mostly Cloudy
8:15 AM 45.5 °F 44.2 °F 42.1 °F 88% 30.02 in 7.0 mi NE 3.5 mph - N/A   Mostly Cloudy
8:35 AM 45.9 °F 44.6 °F 42.1 °F 87% 30.02 in 7.0 mi ENE 3.5 mph - N/A   Scattered Clouds
8:55 AM 45.9 °F 44.6 °F 42.1 °F 87% 30.01 in 5.0 mi NE 3.5 mph - N/A   Mostly Cloudy
9:15 AM 46.4 °F 44.3 °F 42.6 °F 87% 30.00 in 5.0 mi ENE 4.6 mph - N/A   Overcast
9:35 AM 47.7 °F - 42.6 °F 83% 30.00 in 7.0 mi East 5.8 mph - N/A   Overcast
9:55 AM 48.2 °F - 42.8 °F 82% 30.00 in 7.0 mi East 8.1 mph - N/A   Overcast
10:15 AM 47.7 °F - 41.7 °F 80% 30.00 in 10.0 mi East 6.9 mph - N/A   Overcast
10:35 AM 48.2 °F - 41.0 °F 76% 29.98 in 10.0 mi East 5.8 mph - N/A   Mostly Cloudy
10:55 AM 47.7 °F - 41.5 °F 79% 29.97 in 10.0 mi NE 5.8 mph - N/A   Overcast
11:15 AM 47.8 °F - 41.9 °F 80% 29.95 in 7.0 mi NE 6.9 mph - N/A   Overcast
11:35 AM 47.7 °F - 41.9 °F 80% 29.94 in 7.0 mi NE 6.9 mph - N/A   Overcast
11:55 AM 47.5 °F - 43.2 °F 85% 29.93 in 2.5 mi NE 6.9 mph - N/A   Haze
12:15 PM 46.8 °F - 43.7 °F 89% 29.92 in 1.5 mi ENE 6.9 mph - N/A   Drizzle
12:35 PM 46.8 °F - 44.1 °F 90% 29.91 in 1.2 mi ENE 6.9 mph - 0.01 in   Heavy Drizzle
12:55 PM 46.8 °F - 44.2 °F 91% 29.89 in 1.2 mi ENE 9.2 mph - 0.02 in   Drizzle
1:15 PM 46.8 °F - 44.4 °F 92% 29.88 in 1.2 mi ENE 5.8 mph - N/A   Drizzle
1:35 PM 47.3 °F - 44.6 °F 90% 29.86 in 1.2 mi East 8.1 mph - 0.01 in   Drizzle
1:55 PM 47.7 °F - 45.3 °F 92% 29.86 in 1.2 mi East 6.9 mph - 0.02 in   Drizzle
2:15 PM 47.7 °F - 45.3 °F 92% 29.85 in 1.2 mi East 5.8 mph - N/A   Drizzle
2:35 PM 47.7 °F - 45.5 °F 92% 29.85 in 1.0 mi East 6.9 mph - N/A   Drizzle
2:55 PM 47.7 °F - 45.5 °F 92% 29.86 in 1.0 mi East 4.6 mph - N/A Rain Rain
3:15 PM 47.7 °F - 45.5 °F 92% 29.86 in 1.0 mi East 4.6 mph - N/A   Drizzle
3:35 PM 47.7 °F - 45.5 °F 92% 29.85 in 1.0 mi East 5.8 mph - N/A   Drizzle
3:55 PM 47.7 °F - 45.5 °F 92% 29.85 in 1.0 mi East 4.6 mph - 0.01 in   Drizzle
4:15 PM 47.7 °F - 45.5 °F 92% 29.85 in 1.0 mi East 4.6 mph - N/A   Drizzle
4:35 PM 47.7 °F - 45.5 °F 92% 29.84 in 1.2 mi East 5.8 mph - N/A   Light Drizzle
4:55 PM 47.7 °F - 45.5 °F 92% 29.84 in 1.5 mi East 5.8 mph - N/A   Drizzle
5:15 PM 47.8 °F - 45.7 °F 92% 29.84 in 1.8 mi East 4.6 mph - N/A   Light Drizzle
5:35 PM 47.8 °F - 45.7 °F 92% 29.85 in 2.5 mi ESE 4.6 mph - 0.01 in   Overcast
5:55 PM 48.2 °F - 45.9 °F 92% 29.83 in 1.5 mi East 3.5 mph - 0.01 in   Overcast
6:15 PM 48.4 °F - 46.4 °F 93% 29.84 in 1.5 mi East 4.6 mph - N/A   Overcast
6:35 PM 48.6 °F - 46.4 °F 92% 29.83 in 1.2 mi ESE 4.6 mph - N/A   Overcast
6:55 PM 49.3 °F - 47.1 °F 92% 29.83 in 1.5 mi ESE 3.5 mph - N/A Rain Light Rain
7:15 PM 49.3 °F - 47.1 °F 92% 29.83 in 1.2 mi ESE 3.5 mph - N/A   Light Drizzle
7:35 PM 49.3 °F - 47.3 °F 93% 29.82 in 0.8 mi ESE 3.5 mph - N/A   Overcast
7:55 PM 49.3 °F - 47.3 °F 93% 29.81 in 0.8 mi Calm Calm - N/A   Overcast
8:15 PM 49.6 °F - 47.7 °F 93% 29.80 in 0.8 mi Calm Calm - N/A   Overcast
8:35 PM 49.6 °F - 47.7 °F 93% 29.79 in 0.8 mi East 4.6 mph - 0.01 in Rain Light Rain
8:55 PM 50.0 °F - 47.8 °F 92% 29.78 in 1.0 mi Calm Calm - 0.02 in Rain Rain
9:15 PM 50.0 °F - 47.8 °F 92% 29.78 in 1.2 mi Calm Calm - 0.01 in Rain Heavy Rain
9:35 PM 50.4 °F - 48.4 °F 93% 29.77 in 0.8 mi Calm Calm - 0.04 in Rain Heavy Rain
9:55 PM 50.4 °F - 48.4 °F 93% 29.76 in 1.0 mi Calm Calm - 0.06 in Rain Rain
10:35 PM 50.2 °F - 48.2 °F 93% 29.75 in 1.5 mi NNW 4.6 mph - N/A   Drizzle
10:55 PM 50.0 °F - 48.2 °F 94% 29.75 in 1.0 mi Calm Calm - 0.01 in Rain Light Rain
11:15 PM 49.6 °F - 47.7 °F 93% 29.74 in 1.0 mi NW 4.6 mph - N/A   Overcast
11:35 PM 49.5 °F - 47.5 °F 93% 29.73 in 1.0 mi WNW 3.5 mph - N/A   Overcast
11:55 PM 50.0 °F - 48.2 °F 94% 29.72 in 0.8 mi NW 4.6 mph - N/A   Overcast